Mena, AR

8:40 PM CST on January 18, 2018 (GMT -0600)
Mena

Weather History for KMEZ - February, 2014

Change the Weather History Date:

Thursday, February 20, 2014

  Actual Average (KFSM) Record (KFSM)
Temperature  
Mean Temperature 54 °F -  
Max Temperature 71 °F 54 °F 81 °F (1981)
Min Temperature 37 °F 34 °F 12 °F (1921)
Degree Days  
Heating Degree Days 11    
Growing Degree Days 4 (Base 50)    
Moisture  
Dew Point 52 °F    
Average Humidity 79    
Maximum Humidity 100    
Minimum Humidity 49    
Precipitation  
Precipitation 0.02 in - - ()
Sea Level Pressure  
Sea Level Pressure 29.78 in    
Wind  
Wind Speed 12 mph (WSW)    
Max Wind Speed 29 mph    
Max Gust Speed 40 mph    
Visibility 9 miles    
Events Rain    
Averages and records for this station are not official NWS values.
T = Trace of Precipitation, MM = Missing Value Source: NWS Daily Summary

Daily Weather History Graph

Daily Weather History Graph

Search for Another Location

Airport or City:

Trip Planner

Search our weather history database for the weather conditions in past years. The results will help you decide how hot, cold, wet, or windy it might be!

Date:

Astronomy

Feb. 20, 2014 Rise Set
Actual Time 6:56 AM CST 6:04 PM CST
Civil Twilight 6:31 AM CST 6:30 PM CST
Nautical Twilight 6:01 AM CST 6:59 PM CST
Astronomical Twilight 5:32 AM CST 7:28 PM CST
Moon 11:43 PM CST (2/20) 9:54 AM CST (2/20)
Length of Visible Light 11h 59m
Length of Day
11h 08m
Waning Gibbous, 70% of the Moon is Illuminated
Feb 20
Waning Gibbous
Feb 22
Last Quarter
Mar 1
New
Mar 8
First Quarter
Mar 16
Full

Hourly Weather History & Observations

Time (CST) Temp. Windchill Dew Point Humidity Pressure Visibility Wind Dir Wind Speed Gust Speed Precip Events Conditions
12:15 AM 68.0 °F - 60.8 °F 78% 29.70 in 10.0 mi South 12.7 mph 26.5 mph N/A   Overcast
12:35 AM - - - N/A% 29.69 in 10.0 mi South 12.7 mph 20.7 mph N/A   Overcast
12:55 AM 68.0 °F - 60.8 °F 78% 29.69 in 10.0 mi South 11.5 mph 19.6 mph N/A   Overcast
1:15 AM 68.0 °F - 60.8 °F 78% 29.69 in 10.0 mi South 11.5 mph 20.7 mph N/A   Overcast
1:35 AM 68.0 °F - 60.8 °F 78% 29.69 in 10.0 mi SSW 9.2 mph 24.2 mph N/A   Overcast
1:55 AM 66.2 °F - 60.8 °F 83% 29.69 in 10.0 mi SSW 11.5 mph 21.9 mph N/A   Overcast
2:15 AM 66.2 °F - 60.8 °F 83% 29.68 in 10.0 mi South 11.5 mph 20.7 mph N/A   Overcast
2:35 AM 66.2 °F - 60.8 °F 83% 29.67 in 10.0 mi South 9.2 mph 18.4 mph N/A   Overcast
2:55 AM 66.2 °F - 59.0 °F 78% 29.67 in 10.0 mi South 13.8 mph 24.2 mph N/A   Overcast
3:15 AM - - - N/A% 29.66 in 7.0 mi South 11.5 mph 27.6 mph N/A   Overcast
3:35 AM 64.4 °F - 62.6 °F 94% 29.66 in 4.0 mi South 10.4 mph 19.6 mph N/A   Drizzle
3:55 AM 62.6 °F - 62.6 °F 100% 29.65 in 5.0 mi South 12.7 mph 21.9 mph N/A   Light Drizzle
4:15 AM - - - N/A% 29.65 in 7.0 mi SSW 11.5 mph 24.2 mph N/A   Overcast
4:35 AM - - - N/A% 29.66 in 7.0 mi SSW 13.8 mph 23.0 mph N/A   Overcast
4:55 AM - - - N/A% 29.65 in 5.0 mi SSW 9.2 mph 20.7 mph N/A   Light Drizzle
5:15 AM - - - N/A% 29.64 in 10.0 mi SSW 15.0 mph 20.7 mph N/A   Overcast
5:35 AM 64.4 °F - 60.8 °F 88% 29.64 in 10.0 mi SSW 10.4 mph 19.6 mph N/A   Overcast
5:55 AM - - - N/A% 29.64 in 10.0 mi SSW 12.7 mph 21.9 mph N/A   Overcast
6:15 AM - - - N/A% 29.64 in 10.0 mi SSW 10.4 mph 23.0 mph N/A   Overcast
6:35 AM - - - N/A% 29.64 in 10.0 mi South 6.9 mph 19.6 mph N/A   Overcast
6:55 AM 64.4 °F - 60.8 °F 88% 29.65 in 10.0 mi SSW 15.0 mph 21.9 mph N/A Rain Light Rain
7:15 AM - - - N/A% 29.66 in 7.0 mi SSW 11.5 mph 21.9 mph N/A   Drizzle
7:35 AM 64.4 °F - 62.6 °F 94% 29.66 in 5.0 mi SSW 10.4 mph 18.4 mph N/A   Drizzle
7:55 AM 64.4 °F - 64.4 °F 100% 29.67 in 4.0 mi SSW 9.2 mph 18.4 mph 0.01 in   Drizzle
8:15 AM 64.4 °F - 64.4 °F 100% 29.68 in 4.0 mi SSW 9.2 mph 17.3 mph 0.01 in   Drizzle
8:35 AM 64.4 °F - 64.4 °F 100% 29.67 in 7.0 mi SSW 10.4 mph 23.0 mph 0.01 in   Light Drizzle
8:55 AM 64.4 °F - 64.4 °F 100% 29.66 in 7.0 mi SSW 10.4 mph 20.7 mph 0.01 in Rain Light Rain
9:15 AM 64.4 °F - 64.4 °F 100% 29.65 in 10.0 mi SSW 12.7 mph 23.0 mph N/A   Mostly Cloudy
9:35 AM - - - N/A% 29.66 in 10.0 mi SSW 13.8 mph 25.3 mph N/A   Mostly Cloudy
9:55 AM - - - N/A% 29.67 in 10.0 mi SSW 10.4 mph 20.7 mph N/A   Mostly Cloudy
10:15 AM - - - N/A% 29.67 in 10.0 mi SSW 15.0 mph 24.2 mph N/A   Mostly Cloudy
10:35 AM - - - N/A% 29.67 in 10.0 mi SW 10.4 mph 18.4 mph N/A   Mostly Cloudy
10:55 AM - - - N/A% 29.69 in 10.0 mi SW 11.5 mph 25.3 mph N/A   Overcast
11:15 AM 71.6 °F - 59.0 °F 64% 29.69 in 10.0 mi WSW 16.1 mph 23.0 mph N/A   Mostly Cloudy
11:35 AM 71.6 °F - 59.0 °F 64% 29.69 in 10.0 mi SW 12.7 mph 23.0 mph N/A   Mostly Cloudy
11:55 AM - - - N/A% 29.69 in 10.0 mi WSW 16.1 mph 23.0 mph N/A   Mostly Cloudy
12:15 PM - - - N/A% 29.69 in 10.0 mi WSW 19.6 mph 32.2 mph N/A   Scattered Clouds
12:35 PM - - - N/A% 29.69 in 10.0 mi WSW 11.5 mph 20.7 mph N/A   Scattered Clouds
12:55 PM - - - N/A% 29.70 in 10.0 mi WSW 18.4 mph 23.0 mph N/A   Scattered Clouds
1:15 PM - - - N/A% 29.69 in 10.0 mi West 19.6 mph 33.4 mph N/A   Clear
1:35 PM - - - N/A% 29.69 in 10.0 mi West 27.6 mph 40.3 mph N/A   Clear
1:55 PM - - - N/A% 29.70 in 10.0 mi West 23.0 mph 34.5 mph N/A   Clear
2:15 PM - - - N/A% 29.71 in 10.0 mi WNW 28.8 mph 34.5 mph N/A   Scattered Clouds
2:35 PM - - - N/A% 29.74 in 10.0 mi West 27.6 mph 34.5 mph N/A   Scattered Clouds
2:55 PM - - - N/A% 29.76 in 10.0 mi WNW 23.0 mph 29.9 mph N/A   Clear
3:15 PM - - - N/A% 29.78 in 10.0 mi West 27.6 mph 33.4 mph N/A   Clear
3:35 PM - - - N/A% 29.81 in 10.0 mi West 20.7 mph 31.1 mph N/A   Clear
3:55 PM - - - N/A% 29.82 in 10.0 mi NW 20.7 mph 28.8 mph N/A   Clear
4:15 PM - - - N/A% 29.85 in 10.0 mi WNW 19.6 mph 28.8 mph N/A   Clear
4:35 PM - - - N/A% 29.87 in 10.0 mi NW 13.8 mph 27.6 mph N/A   Clear
4:55 PM - - - N/A% 29.89 in 10.0 mi NW 16.1 mph 23.0 mph N/A   Clear
5:15 PM - - - N/A% 29.90 in 10.0 mi WNW 18.4 mph 26.5 mph N/A   Clear
5:35 PM - - - N/A% 29.91 in 10.0 mi WNW 15.0 mph 25.3 mph N/A   Clear
5:55 PM - - - N/A% 29.92 in 10.0 mi WNW 17.3 mph 26.5 mph N/A   Clear
6:15 PM - - - N/A% 29.93 in 10.0 mi WNW 6.9 mph 17.3 mph N/A   Clear
6:35 PM - - - N/A% 29.94 in 10.0 mi WNW 9.2 mph 19.6 mph N/A   Clear
6:55 PM - - - N/A% 29.96 in 10.0 mi WNW 5.8 mph - N/A   Clear
7:15 PM - - - N/A% 29.97 in 10.0 mi WNW 4.6 mph - N/A   Clear
7:35 PM - - - N/A% 29.99 in 10.0 mi WNW 6.9 mph - N/A   Clear
7:55 PM - - - N/A% 30.00 in 10.0 mi WNW 4.6 mph - N/A   Clear
8:15 PM - - - N/A% 30.01 in 10.0 mi West 5.8 mph - N/A   Clear
8:35 PM - - - N/A% 30.01 in 10.0 mi West 4.6 mph - N/A   Clear
8:55 PM - - - N/A% 30.01 in 10.0 mi West 5.8 mph - N/A   Clear
9:15 PM - - - N/A% 30.01 in 10.0 mi SW 5.8 mph - N/A   Clear
9:35 PM 41.0 °F 39.0 °F 30.2 °F 65% 30.02 in 10.0 mi SW 3.5 mph - N/A   Clear
9:55 PM 44.6 °F 42.2 °F 28.4 °F 53% 30.02 in 10.0 mi WSW 4.6 mph - N/A   Clear
10:15 PM 39.2 °F 35.0 °F 30.2 °F 70% 30.03 in 10.0 mi WSW 5.8 mph - N/A   Clear
10:35 PM 42.8 °F 40.1 °F 28.4 °F 57% 30.03 in 10.0 mi WSW 4.6 mph - N/A   Clear
10:55 PM 37.4 °F 33.8 °F 30.2 °F 75% 30.03 in 10.0 mi West 4.6 mph - N/A   Clear
11:15 PM 42.8 °F 40.1 °F 26.6 °F 53% 30.02 in 10.0 mi West 4.6 mph - N/A   Clear
11:35 PM 41.0 °F 38.0 °F 26.6 °F 57% 30.03 in 10.0 mi WSW 4.6 mph - N/A   Clear
11:55 PM 41.0 °F 38.0 °F 23.0 °F 49% 30.04 in 10.0 mi West 4.6 mph - N/A   Clear